Maniitsoq

KL  EN  DA
ASIAQ
Weather Now GREENLAND SURVEY
Updated [WGT/WGST] Temperature [°C] Wind [m/s] Air pressure [hPa] Relative humidity [%] Precipitation [mm]
Present Wind chill Speed Max
17.04 23:00n/an/a6,8 ⇐8,51015n/an/a
17.04 22:00-10,5-19,36,8 ⇐9,4101558n/a
17.04 21:00-10,4-18,96,4 ⇐8,2101560n/a
17.04 20:00-10,0-18,97,2 ⇐9,2101460n/a
17.04 19:00-10,0-18,26,1 ⇐9,1101461n/a
17.04 18:00-9,4-17,56,2 ⇐7,9101461n/a
17.04 17:00-9,5-17,86,4 ⇐8,5101365n/a
17.04 16:00-9,2-16,85,5 ⇐7,4101363n/a
17.04 15:00-9,6-17,35,6 ⇐7,4101261n/a
17.04 14:00-10,0-18,36,3 ⇐8,1101261n/a
17.04 13:00-10,2-18,86,6 ⇐8,2101261n/a
17.04 12:00-10,6-19,06,2 ⇐7,8101262n/a
17.04 11:00-11,3-20,16,4 ⇐8,0101163n/a
17.04 10:00-11,6-20,56,5 ⇐8,7101165n/a
17.04 09:00-11,9-20,45,8 ⇐7,3101167n/a
17.04 08:00-12,3-20,95,7 ⇐8,3101071n/a
17.04 07:00-12,2-20,25,1 ⇐6,9101074n/a
17.04 06:00-12,5-20,44,8 ⇐6,9100982n/a
17.04 05:00-12,3-20,04,7 ⇐6,4100985n/a
17.04 04:00-11,9-17,02,4 ⇐2,8100887n/a
17.04 03:00-11,9-16,62,2 ⇐3,0100884n/a
17.04 02:00-12,0-16,82,2 ⇙2,9100884n/a
17.04 01:00-12,2-15,61,5 ⇙1,9100779n/a
17.04 00:00-12,4-17,32,2 ⇓2,6100782n/a
16.04 23:00-12,3-15,61,4 ⇓1,9100773n/a
Position: (65.416667,-52.933333)

[Back]